Location: Estes Park
(40.3770°N, 105.5210°W)
Time: 17:27:05
(UTC-07:00)

Envisat - Pass Details

Date: 09 October 2017
Orbit: 764 x 766 km, 98.2° (Epoch: 13 December)

Event Time Altitude Azimuth Distance (km) Brightness Sun altitude
Exits shadow 21:24:56 40° 291° (WNW) 1,109 4.1 -33.4°
Drops below altitude 10° 21:28:53 10° 334° (NNW) 2,307 6.0 -34.1°
Sets 21:31:18 0° 341° (NNW) 3,238 6.8 -34.6°
